[[{"header":{"parameterUnit":"m.s-1","parameterCategory":2,"la1":30.2991,"la2":30.254,"lo1":-89.0895,"lo2":-89.0444,"dy":0.0017,"dx":0.0017,"nx":28,"ny":28,"refTime":"2024-02-06T03:00:00:Z","depth":"0","parameterNumber":2,"parameterNumberName":"U-component_of_CURRENTS"},"data":[0,0,0,0,0,0,0,0,0,0,0,0,0,0,0,0,0,0,0,0,0,0,0,0,0,0,0,0,0,0,0,0,0,0,0,0,0,0,0,0,0,0,0,0,0,0,0,0,0,0,0,0,0,0,0,0,0,0,0.3014,0.3014,0,0.3005,0.3005,0.3005,0.2977,0.2977,0.2976,0.2976,0.2939,0.2938,0.2938,0,0,0,0,0,0,0,0,0,0,0,0,0,0.3036,0.3035,0.3014,0.3014,0.3014,0.3006,0.3005,0.3005,0.2977,0.2977,0.2976,0.2975,0.2939,0.2938,0.2937,0,0,0,0,0,0,0,0,0,0,0,0,0,0.3025,0.3035,0.3014,0.3,0.2999,0.3006,0.3005,0.3005,0.2977,0.2977,0.2976,0.2975,0.2939,0.2938,0.2937,0.2946,0,0,0.2935,0.2934,0,0,0,0,0,0,0,0,0.3025,0.3024,0.3002,0.3001,0.3,0.2993,0.2999,0.2984,0.2977,0.2984,0.2976,0.2975,0.2956,0.2954,0.2951,0.2945,0.2943,0.2935,0.2934,0.2934,0.2934,0,0,0,0,0,0,0,0.3026,0.3024,0.3009,0.3002,0.3001,0.3005,0.3002,0.2997,0.2972,0.2983,0.2981,0.2984,0.2955,0.2952,0.295,0.2942,0.2935,0.2934,0.2934,0.2933,0.2965,0.2967,0,0,0,0,0,0,0.303,0.3025,0.3009,0.3009,0.3013,0.3005,0.3002,0.2995,0.2972,0.2969,0.2984,0.2982,0.2954,0.2951,0.2949,0.2975,0.2934,0.2933,0.2933,0.2964,0.2966,0.2967,0,0,0,0,0,0,0.303,0.3028,0.3009,0.3019,0.3017,0.3006,0.2997,0.2995,0.2997,0.2974,0.297,0.2989,0.2953,0.295,0.2953,0.2973,0.2933,0.2932,0.2963,0.2965,0.2966,0.3017,0,0,0,0,0,0,0.3031,0.3028,0.3028,0.3018,0.3016,0.3019,0.2998,0.2995,0.3,0.2997,0.2977,0.2973,0.2953,0.2955,0.2952,0.2971,0.2931,0.2961,0.2963,0.2966,0.3013,0.302,0.3026,0,0,0,0,0,0.3031,0.303,0.3027,0.3026,0.3014,0.302,0.3019,0.3008,0.3001,0.3006,0.2995,0.2973,0.2969,0.2955,0.2952,0.2971,0.296,0.2963,0.2966,0.3011,0.3019,0.3026,0,0,0,0,0,0,0.3039,0.3027,0.3024,0.3019,0.3024,0.3016,0.302,0.3016,0.3013,0.301,0.2987,0.2982,0.2996,0.298,0.2965,0.299,0.2963,0.2965,0.2998,0.3006,0.3012,0.3035,0.2931,0,0,0,0,0,0.3043,0.3036,0.3034,0.3032,0.3036,0.3032,0.3035,0.303,0.3025,0.3023,0.3008,0.3001,0.3007,0.3002,0.3001,0.301,0.3017,0.3023,0.3029,0.3034,0.3053,0.3087,0.3099,0.2977,0.2977,0.2977,0,0,0.3044,0.3039,0.3035,0.3034,0.3036,0.3048,0.3031,0.3039,0.3054,0.302,0.3031,0.3024,0.3017,0.303,0.3034,0.3016,0.3071,0.3038,0.3043,0.3059,0.3092,0.3104,0.3114,0.2979,0.2979,0.2979,0,0,0.3048,0.3044,0.3042,0.3052,0.3061,0.3063,0.307,0.3068,0.3072,0.3081,0.3072,0.3083,0.3069,0.308,0.3082,0.3126,0.3109,0.3118,0.3162,0.3195,0.3205,0.3215,0.3231,0.3242,0.3116,0.3116,0.3116,0,0.3053,0.3048,0.3047,0.3058,0.3067,0.3074,0.3086,0.3101,0.3101,0.3113,0.3089,0.311,0.3099,0.3141,0.3155,0.3142,0.3149,0.313,0.3204,0.3213,0.3222,0.3236,0.3247,0.3118,0.3118,0.3118,0.3118,0,0.3057,0.3062,0.3068,0.3081,0.3096,0.3108,0.313,0.3147,0.3147,0.3158,0.3191,0.3185,0.3198,0.3198,0.3186,0.3248,0.323,0.3211,0.3183,0.3237,0.3249,0.3259,0.3122,0.3121,0.3121,0.312,0,0,0.304,0.3063,0.3066,0.3072,0.3108,0.3113,0.3159,0.3193,0.3224,0.3231,0.3266,0.3288,0.329,0.3295,0.329,0.3317,0.3378,0.3291,0.3292,0.3307,0.3443,0.3398,0.3404,0.3368,0.3371,0.3372,0.3424,0,0.3043,0.3057,0.3076,0.3099,0.3107,0.3141,0.3179,0.3217,0.3249,0.3286,0.3312,0.3339,0.3327,0.3331,0.3367,0.338,0.3409,0.3366,0.339,0.3391,0.3344,0.3417,0.3268,0.3298,0.3434,0.3435,0.3437,0,0.3035,0.3046,0.3063,0.3095,0.3104,0.3126,0.3186,0.3224,0.3303,0.3328,0.3381,0.3396,0.346,0.3424,0.3499,0.347,0.347,0.3472,0.3473,0.3425,0.3367,0.3269,0.3312,0.3206,0.3452,0.3451,0.345,0,0.2999,0.3033,0.3041,0.3053,0.31,0.312,0.3153,0.3231,0.3283,0.3363,0.34,0.3471,0.3505,0.3534,0.3557,0.3528,0.3625,0.3577,0.354,0.3535,0.3412,0.3393,0.3356,0.3631,0.363,0.363,0.363,0,0.2983,0.2987,0.3022,0.3024,0.3051,0.3092,0.3145,0.3198,0.3292,0.3346,0.3419,0.3476,0.3535,0.3592,0.3593,0.3616,0.3659,0.3574,0.3559,0.3424,0.3406,0.3311,0.3259,0.3632,0.3632,0.3631,0.3631,0,0.2939,0.2962,0.2972,0.3015,0.3033,0.3051,0.3142,0.3175,0.3277,0.3352,0.3378,0.3508,0.3577,0.363,0.3685,0.366,0.3565,0.3666,0.3501,0.3466,0.3303,0.326,0.3136,0.3045,0.3624,0.3623,0.3623,0,0.2915,0.2914,0.2957,0.2961,0.2979,0.3022,0.3046,0.3156,0.3202,0.3358,0.3379,0.35,0.356,0.3658,0.3649,0.366,0.354,0.3504,0.3423,0.33,0.3241,0.3126,0.3051,0.3274,0.327,0.3268,0.3266,0,0.2871,0.2887,0.2896,0.2911,0.2926,0.2956,0.3002,0.3051,0.3161,0.3226,0.3334,0.3407,0.3529,0.3495,0.3527,0.3509,0.3317,0.3447,0.3361,0.3013,0.2844,0.2745,0.323,0.3241,0.3244,0.3246,0.3247,0.3248,0.2834,0.2829,0.2838,0.2837,0.2854,0.2858,0.284,0.2902,0.2961,0.3017,0.319,0.3226,0.3299,0.3341,0.331,0.3159,0.3167,0.3019,0.2993,0.2901,0.276,0.3197,0.3167,0.3168,0.317,0.3172,0.3173,0,0.2763,0.2755,0.2756,0.2736,0.2693,0.2746,0.2766,0.2722,0.271,0.2835,0.2903,0.2947,0.2909,0.2942,0.2861,0.272,0.2602,0.2615,0.2408,0.237,0.2793,0.2725,0.2545,0.2545,0.2545,0.2546,0.2546,0.2546,0.2724,0.2682,0.2667,0.2568,0.2543,0.2456,0.2433,0.2404,0.2455,0.2454,0.2471,0.256,0.2663,0.2595,0.2437,0.237,0.2171,0.205,0.2069,0.2354,0.2389,0.2422,0.2346,0.2091,0.209,0.1539,0.1535,0.1532]},{"header":{"parameterUnit":"m.s-1","parameterCategory":2,"la1":30.2991,"la2":30.254,"lo1":-89.0895,"lo2":-89.0444,"dy":0.0017,"dx":0.0017,"nx":28,"ny":28,"refTime":"2024-02-06T03:00:00:Z","depth":"0","parameterNumber":3,"parameterNumberName":"V-component_of_CURRENTS"},"data":[0,0,0,0,0,0,0,0,0,0,0,0,0,0,0,0,0,0,0,0,0,0,0,0,0,0,0,0,0,0,0,0,0,0,0,0,0,0,0,0,0,0,0,0,0,0,0,0,0,0,0,0,0,0,0,0,0,0,0.0156,0.0156,0,0.0122,0.0121,0.0121,0.0093,0.0093,0.0093,0.0093,0.0046,0.0045,0.0044,0,0,0,0,0,0,0,0,0,0,0,0,0,0.0141,0.0142,0.0156,0.0156,0.0155,0.0122,0.0121,0.0121,0.0093,0.0093,0.0093,0.0093,0.0047,0.0045,0.0044,0,0,0,0,0,0,0,0,0,0,0,0,0,0.013,0.0142,0.0156,0.0138,0.0137,0.0122,0.0121,0.012,0.0093,0.0093,0.0093,0.0092,0.0047,0.0045,0.0044,0.0039,0,0,0.0039,0.0038,0,0,0,0,0,0,0,0,0.0131,0.0131,0.0141,0.014,0.0138,0.0113,0.0099,0.0093,0.0093,0.0108,0.0093,0.0092,0.0068,0.0065,0.0057,0.0037,0.0035,0.0039,0.0038,0.0037,0.0037,0,0,0,0,0,0,0,0.0132,0.0132,0.0141,0.0141,0.0139,0.0113,0.0112,0.0097,0.0089,0.0107,0.0105,0.0104,0.0067,0.0059,0.0056,0.0034,0.0039,0.0037,0.0036,0.0036,0.001,0.0011,0,0,0,0,0,0,0.0142,0.0133,0.0142,0.014,0.0135,0.0114,0.0112,0.012,0.0089,0.0085,0.0104,0.0102,0.0062,0.0058,0.0054,0.0064,0.0037,0.0036,0.0035,0.001,0.001,0.0011,0,0,0,0,0,0,0.0142,0.0144,0.0144,0.0136,0.0134,0.0115,0.0123,0.0119,0.0116,0.0087,0.0082,0.0105,0.0062,0.0057,0.0048,0.0061,0.0035,0.0033,0.001,0.001,0.0011,0.0073,0,0,0,0,0,0,0.0142,0.0144,0.0151,0.0137,0.0135,0.0145,0.0124,0.0119,0.0115,0.0113,0.0087,0.0082,0.0061,0.005,0.0046,0.0059,0.0032,0.0009,0.001,0.001,0.007,0.0075,0.0079,0,0,0,0,0,0.0142,0.0157,0.0151,0.0152,0.0146,0.0146,0.0143,0.0126,0.0116,0.0121,0.01,0.0083,0.0051,0.005,0.0044,0.0057,0.0009,0.001,0.001,0.0068,0.0074,0.0079,0,0,0,0,0,0,0.015,0.0155,0.0149,0.0164,0.0159,0.0142,0.0144,0.0132,0.012,0.0116,0.0088,0.0082,0.0076,0.0058,0.0057,0.005,0.0027,0.0026,0.0072,0.0077,0.0082,0.0103,0.0031,0,0,0,0,0,0.0157,0.0171,0.0166,0.0177,0.0178,0.0162,0.0158,0.0148,0.0135,0.0129,0.0111,0.009,0.0074,0.007,0.005,0.0051,0.0026,0.0054,0.0059,0.0063,0.0076,0.0048,0.0051,0.0013,0.0013,0.0013,0,0,0.0161,0.0166,0.0173,0.018,0.0174,0.0186,0.0159,0.016,0.017,0.0127,0.0131,0.0103,0.0076,0.0074,0.007,0.0062,0.0059,0.0064,0.0068,0.0078,0.0049,0.0053,0.0056,0.0013,0.0013,0.0013,0,0,0.0184,0.0185,0.0207,0.021,0.021,0.0203,0.0208,0.0196,0.0191,0.0188,0.0159,0.0144,0.0121,0.0108,0.0098,0.0116,0.008,0.0107,0.0153,0.0126,0.013,0.0132,0.0101,0.01,0.0114,0.0114,0.0114,0,0.0187,0.0219,0.0211,0.0232,0.0243,0.0217,0.0243,0.0234,0.0219,0.0224,0.0198,0.0167,0.0139,0.0145,0.0148,0.0129,0.0104,0.0137,0.0134,0.0136,0.0137,0.0104,0.0102,0.0117,0.0117,0.0117,0.0116,0,0.023,0.0253,0.0266,0.0291,0.0297,0.0314,0.0307,0.0308,0.0294,0.0286,0.028,0.0236,0.0222,0.0206,0.0183,0.0186,0.0161,0.0139,0.0123,0.0145,0.0108,0.0106,0.0122,0.012,0.012,0.0119,0,0,0.0252,0.0291,0.0296,0.0323,0.0333,0.0348,0.0363,0.038,0.0408,0.0367,0.0391,0.0347,0.032,0.0306,0.0268,0.0244,0.0224,0.0203,0.02,0.0178,0.0161,0.016,0.0156,0.02,0.02,0.02,0.0129,0,0.0291,0.0352,0.0357,0.0411,0.0445,0.0434,0.0458,0.0465,0.0463,0.0476,0.0423,0.0423,0.0359,0.0354,0.0318,0.0255,0.0221,0.0245,0.0137,0.0134,0.0136,0.0154,0.019,0.0131,0.0126,0.0125,0.0125,0,0.0339,0.0376,0.0439,0.0493,0.0506,0.0531,0.0579,0.0599,0.0604,0.0601,0.0582,0.0536,0.0498,0.0433,0.033,0.0349,0.0262,0.02,0.0195,0.0175,0.0129,0.0109,0.0126,0.001,0.012,0.0121,0.0121,0,0.0379,0.0438,0.0496,0.0512,0.056,0.0588,0.0615,0.064,0.0683,0.0684,0.0704,0.0639,0.0617,0.05,0.0367,0.0347,0.0249,0.0202,0.0115,0.0113,0.0114,0.0113,0.0016,0.0122,0.0122,0.0123,0.0123,0,0.0432,0.0477,0.0522,0.0556,0.0636,0.0644,0.073,0.0747,0.0788,0.0852,0.0774,0.0805,0.0633,0.0552,0.0407,0.0267,0.0276,0.0132,0.0101,0.0135,0.0137,0.0012,-0.0057,0.012,0.0121,0.0121,0.0122,0,0.0472,0.0498,0.0573,0.0633,0.0661,0.072,0.0816,0.0877,0.0899,0.0975,0.0975,0.0935,0.0836,0.0655,0.048,0.0339,0.0127,0.0132,0.0184,0.016,-0.0034,-0.01,-0.0229,-0.028,0.002,0.002,0.0019,0,0.05,0.0543,0.0635,0.0689,0.0723,0.0811,0.0878,0.0934,0.1012,0.1067,0.1113,0.1042,0.103,0.0777,0.0517,0.0267,0.013,0.0118,0.0082,-0.0028,-0.0126,-0.0177,-0.0214,0.0097,0.0097,0.0098,0.0098,0,0.0556,0.0586,0.0648,0.0761,0.0843,0.0949,0.1051,0.1132,0.1196,0.1269,0.1354,0.1347,0.1111,0.0902,0.0554,0.0371,0.0055,0.0116,-0.0011,-0.0075,-0.0124,-0.0193,0.0118,0.0101,0.01,0.01,0.01,0.01,0.0597,0.0652,0.0733,0.0842,0.0941,0.1073,0.1171,0.1289,0.1432,0.1543,0.1535,0.1564,0.1235,0.0788,0.0535,0.009,0.0064,-0.0054,-0.0128,-0.0171,-0.0208,0.0112,0.007,0.0069,0.0069,0.0068,0.0068,0,0.0647,0.0711,0.081,0.094,0.1052,0.11,0.1276,0.1386,0.1563,0.1672,0.1751,0.1623,0.1243,0.0814,0.0216,-0.0092,-0.0207,-0.0268,-0.0336,-0.0367,-0.009,-0.0072,-0.013,-0.013,-0.013,-0.013,-0.013,-0.013,0.0675,0.0771,0.0822,0.1007,0.1101,0.126,0.1365,0.1539,0.1672,0.1825,0.1858,0.1848,0.1512,0.0499,-0.0182,-0.0336,-0.0528,-0.0579,-0.0697,-0.0512,-0.0498,-0.0484,-0.0483,-0.0626,-0.0627,-0.092,-0.0923,-0.0926]}],[{"header":{"parameterUnit":"m.s-1","parameterCategory":2,"la1":30.2991,"la2":30.254,"lo1":-89.0895,"lo2":-89.0444,"dy":0.0017,"dx":0.0017,"nx":28,"ny":28,"refTime":"2024-02-06T03:00:00:Z","depth":"2","parameterNumber":2,"parameterNumberName":"U-component_of_CURRENTS"},"data":[0,0,0,0,0,0,0,0,0,0,0,0,0,0,0,0,0,0,0,0,0,0,0,0,0,0,0,0,0,0,0,0,0,0,0,0,0,0,0,0,0,0,0,0,0,0,0,0,0,0,0,0,0,0,0,0,0,0,0.2645,0.2646,0,0.265,0.265,0.265,0.2638,0.2638,0.2638,0.2638,0.2624,0.2624,0.2624,0,0,0,0,0,0,0,0,0,0,0,0,0,0.2644,0.2643,0.2645,0.2646,0.2646,0.265,0.265,0.265,0.2638,0.2638,0.2638,0.2638,0.2624,0.2624,0.2624,0,0,0,0,0,0,0,0,0,0,0,0,0,0.2644,0.2643,0.2645,0.2642,0.2642,0.265,0.265,0.265,0.2638,0.2638,0.2638,0.2637,0.2624,0.2624,0.2624,0.2629,0,0,0.2623,0.2623,0,0,0,0,0,0,0,0,0.2644,0.2644,0.2642,0.2642,0.2642,0.2645,0.2645,0.2643,0.2638,0.2638,0.2638,0.2637,0.2631,0.263,0.2629,0.2628,0.2628,0.2623,0.2623,0.2623,0.2623,0,0,0,0,0,0,0,0.2644,0.2644,0.2645,0.2642,0.2642,0.2646,0.2646,0.2644,0.2634,0.2638,0.2637,0.2641,0.263,0.263,0.2629,0.2628,0.2623,0.2623,0.2623,0.2623,0.2671,0.2673,0,0,0,0,0,0,0.2647,0.2644,0.2645,0.2646,0.2644,0.2647,0.2646,0.2643,0.2635,0.2634,0.2641,0.264,0.263,0.2629,0.2629,0.2666,0.2623,0.2623,0.2623,0.267,0.2672,0.2673,0,0,0,0,0,0,0.2646,0.2646,0.2645,0.2647,0.2647,0.2647,0.2644,0.2643,0.2653,0.2638,0.2636,0.2653,0.263,0.2629,0.2641,0.2664,0.2623,0.2622,0.2668,0.267,0.2672,0.2721,0,0,0,0,0,0,0.2646,0.2646,0.2651,0.2647,0.2647,0.2658,0.2644,0.2643,0.2656,0.2655,0.2647,0.2645,0.263,0.2642,0.2641,0.2663,0.2622,0.2666,0.2669,0.2672,0.2717,0.2724,0.273,0,0,0,0,0,0.2646,0.2649,0.265,0.2651,0.2651,0.2659,0.2659,0.2657,0.2657,0.2664,0.2663,0.2646,0.2659,0.2643,0.2642,0.2664,0.2665,0.2668,0.2672,0.2714,0.2723,0.273,0,0,0,0,0,0,0.265,0.2648,0.265,0.2652,0.266,0.2657,0.2666,0.2667,0.2673,0.2675,0.266,0.2658,0.2681,0.2668,0.2651,0.2688,0.2661,0.2664,0.2694,0.2702,0.2708,0.2727,0.2622,0,0,0,0,0,0.2654,0.2656,0.2659,0.2664,0.267,0.2673,0.2679,0.2679,0.2682,0.2684,0.2679,0.2681,0.2693,0.2693,0.2697,0.2712,0.2717,0.2729,0.2735,0.2741,0.2757,0.2789,0.28,0.2684,0.2684,0.2684,0,0,0.2656,0.2658,0.2658,0.2666,0.2672,0.2686,0.2675,0.2689,0.2706,0.2682,0.2704,0.2704,0.2704,0.2724,0.2733,0.2715,0.2775,0.2745,0.2749,0.2763,0.2794,0.2805,0.2815,0.2686,0.2686,0.2685,0,0,0.2661,0.2666,0.267,0.2682,0.2698,0.2703,0.2712,0.2719,0.2728,0.2746,0.2743,0.2763,0.2762,0.2775,0.278,0.2827,0.2812,0.2825,0.2866,0.2898,0.2908,0.2916,0.2928,0.2937,0.2823,0.2823,0.2823,0,0.2666,0.2669,0.2675,0.2689,0.2701,0.2715,0.2729,0.2747,0.2758,0.2775,0.2759,0.2796,0.2792,0.2836,0.2852,0.2843,0.285,0.2833,0.2906,0.2915,0.2923,0.2933,0.2942,0.2826,0.2825,0.2825,0.2825,0,0.2672,0.2684,0.2692,0.2713,0.273,0.2745,0.2771,0.2793,0.2805,0.2821,0.2865,0.2866,0.2889,0.2893,0.2885,0.2947,0.2929,0.2913,0.2885,0.2938,0.2944,0.2954,0.283,0.2829,0.2828,0.2827,0,0,0.2656,0.2687,0.2691,0.2702,0.2743,0.2751,0.28,0.2838,0.2873,0.2893,0.2934,0.2966,0.2975,0.2984,0.2983,0.301,0.3067,0.2989,0.2989,0.2997,0.3127,0.3068,0.3072,0.3063,0.3065,0.3067,0.3105,0,0.2658,0.2677,0.27,0.2728,0.2738,0.2778,0.2818,0.2863,0.2901,0.2946,0.2979,0.3016,0.3009,0.3021,0.3055,0.307,0.3096,0.3058,0.3078,0.3078,0.3018,0.3083,0.2823,0.2831,0.3114,0.3115,0.3116,0,0.265,0.2665,0.2687,0.2726,0.2736,0.2764,0.283,0.2871,0.2955,0.2988,0.3048,0.307,0.3136,0.3107,0.3177,0.3152,0.3153,0.3154,0.3155,0.3094,0.3038,0.2827,0.2837,0.3132,0.313,0.3129,0.3128,0,0.2612,0.2652,0.2665,0.268,0.2734,0.276,0.2799,0.2882,0.2936,0.3026,0.3068,0.314,0.3181,0.3208,0.3231,0.3206,0.3291,0.325,0.3197,0.3191,0.2972,0.2944,0.3298,0.3298,0.3298,0.3298,0.3298,0,0.2593,0.2603,0.2649,0.2654,0.2688,0.2736,0.2795,0.2852,0.2952,0.301,0.309,0.3145,0.3211,0.3263,0.3262,0.3272,0.3321,0.3226,0.321,0.298,0.2954,0.3214,0.3204,0.3299,0.3299,0.3298,0.3298,0,0.2546,0.2575,0.2593,0.2647,0.2668,0.2694,0.2795,0.2832,0.2941,0.3021,0.3053,0.3179,0.3242,0.3293,0.3342,0.3309,0.3317,0.3301,0.3024,0.2975,0.3181,0.3173,0.324,0.3238,0.3237,0.3236,0.3235,0,0.252,0.2523,0.2579,0.2589,0.2616,0.2669,0.27,0.2816,0.2866,0.3024,0.3048,0.3165,0.3212,0.3287,0.3256,0.3251,0.3309,0.2992,0.2903,0.3204,0.3182,0.3175,0.3169,0.2621,0.2615,0.261,0.2606,0,0.2473,0.2498,0.2512,0.254,0.2567,0.2602,0.2661,0.2706,0.2826,0.2893,0.2986,0.3046,0.3135,0.3022,0.3036,0.2995,0.2973,0.2895,0.3288,0.2687,0.2627,0.2603,0.2616,0.2564,0.2568,0.2571,0.2573,0.2575,0.2437,0.2437,0.2458,0.247,0.2498,0.2507,0.2496,0.256,0.2616,0.2671,0.2818,0.2805,0.2838,0.2736,0.2648,0.2578,0.2783,0.2624,0.2635,0.2653,0.2586,0.2528,0.2433,0.2436,0.2439,0.2441,0.2444,0,0.237,0.237,0.238,0.2376,0.2348,0.2408,0.2431,0.2387,0.2374,0.2464,0.251,0.2321,0.2246,0.2279,0.2107,0.2105,0.2063,0.2008,0.191,0.1955,0.1995,0.1891,0.1555,0.1552,0.1549,0.1546,0,0,0.2334,0.2301,0.2293,0.2216,0.221,0.2142,0.2124,0.2083,0.2104,0.2059,0.2029,0.2179,0.2237,0.1873,0.1819,0.1651,0.1793,0.1592,0.2311,0.2243,0.2279,0.2363,0.2257,0,0,0,0,0]},{"header":{"parameterUnit":"m.s-1","parameterCategory":2,"la1":30.2991,"la2":30.254,"lo1":-89.0895,"lo2":-89.0444,"dy":0.0017,"dx":0.0017,"nx":28,"ny":28,"refTime":"2024-02-06T03:00:00:Z","depth":"2","parameterNumber":3,"parameterNumberName":"V-component_of_CURRENTS"},"data":[0,0,0,0,0,0,0,0,0,0,0,0,0,0,0,0,0,0,0,0,0,0,0,0,0,0,0,0,0,0,0,0,0,0,0,0,0,0,0,0,0,0,0,0,0,0,0,0,0,0,0,0,0,0,0,0,0,0,0.0259,0.0259,0,0.0229,0.0229,0.0229,0.0206,0.0206,0.0206,0.0206,0.0169,0.0168,0.0167,0,0,0,0,0,0,0,0,0,0,0,0,0,0.0246,0.0247,0.0259,0.0259,0.0259,0.0229,0.0229,0.0228,0.0206,0.0206,0.0206,0.0206,0.0169,0.0168,0.0167,0,0,0,0,0,0,0,0,0,0,0,0,0,0.0237,0.0247,0.0259,0.0245,0.0243,0.0229,0.0229,0.0228,0.0206,0.0206,0.0206,0.0206,0.0169,0.0168,0.0167,0.0163,0,0,0.0163,0.0162,0,0,0,0,0,0,0,0,0.0238,0.0238,0.0247,0.0246,0.0244,0.0222,0.0211,0.0206,0.0206,0.022,0.0206,0.0206,0.0186,0.0184,0.0178,0.0161,0.016,0.0163,0.0162,0.0161,0.0161,0,0,0,0,0,0,0,0.0239,0.0239,0.0247,0.0247,0.0245,0.0222,0.0221,0.0209,0.0204,0.0218,0.0217,0.0215,0.0185,0.0179,0.0177,0.0159,0.0163,0.0162,0.0161,0.016,0.0138,0.0139,0,0,0,0,0,0,0.0247,0.024,0.0248,0.0246,0.0241,0.0223,0.0221,0.0229,0.0204,0.02,0.0215,0.0214,0.0181,0.0178,0.0175,0.0184,0.0161,0.016,0.016,0.0138,0.0138,0.0139,0,0,0,0,0,0,0.0247,0.0248,0.0249,0.0242,0.024,0.0224,0.0232,0.0228,0.0225,0.0202,0.0198,0.0216,0.0181,0.0177,0.0171,0.0182,0.016,0.0158,0.0138,0.0138,0.0139,0.0191,0,0,0,0,0,0,0.0247,0.0249,0.0255,0.0243,0.0241,0.025,0.0232,0.0228,0.0224,0.0223,0.0201,0.0197,0.0181,0.0173,0.0169,0.0179,0.0157,0.0138,0.0138,0.0138,0.0189,0.0194,0.0197,0,0,0,0,0,0.0246,0.026,0.0256,0.0256,0.0252,0.025,0.0248,0.0233,0.0225,0.0229,0.0212,0.0198,0.0172,0.0172,0.0168,0.0178,0.0138,0.0138,0.0138,0.0188,0.0193,0.0197,0,0,0,0,0,0,0.0254,0.0258,0.0254,0.0267,0.0262,0.0247,0.0248,0.0238,0.0228,0.0225,0.0202,0.0198,0.0194,0.0178,0.0178,0.0171,0.0152,0.0151,0.0191,0.0195,0.0199,0.0217,0.0156,0,0,0,0,0,0.026,0.0273,0.0268,0.0278,0.0279,0.0264,0.0261,0.0252,0.0242,0.0237,0.0221,0.0204,0.0192,0.0188,0.0172,0.0173,0.0149,0.0174,0.0178,0.0182,0.0193,0.0162,0.0165,0.014,0.014,0.014,0,0,0.0264,0.0269,0.0275,0.0281,0.0275,0.0286,0.0262,0.0262,0.0271,0.0234,0.0239,0.0216,0.0193,0.0192,0.0189,0.0182,0.0175,0.0182,0.0186,0.0195,0.0163,0.0166,0.0168,0.014,0.014,0.014,0,0,0.0284,0.0286,0.0305,0.0307,0.0306,0.03,0.0304,0.0293,0.0289,0.0287,0.0263,0.0249,0.0231,0.0219,0.0211,0.0226,0.0193,0.0218,0.0257,0.0227,0.0229,0.0231,0.0201,0.0199,0.0223,0.0223,0.0224,0,0.0287,0.0316,0.0308,0.0327,0.0336,0.0313,0.0336,0.0327,0.0314,0.0318,0.0296,0.0269,0.0246,0.025,0.0253,0.0236,0.0212,0.0244,0.0233,0.0234,0.0235,0.0204,0.0201,0.0226,0.0226,0.0226,0.0225,0,0.0325,0.0346,0.0357,0.038,0.0385,0.04,0.0393,0.0393,0.038,0.0373,0.0366,0.0327,0.0315,0.0301,0.0283,0.0281,0.0259,0.0239,0.0225,0.024,0.0207,0.0203,0.023,0.0229,0.0228,0.0227,0,0,0.0343,0.0379,0.0384,0.0409,0.0418,0.0431,0.0443,0.0457,0.0479,0.0443,0.046,0.0423,0.0398,0.0386,0.0353,0.0326,0.0304,0.0291,0.0288,0.0268,0.0237,0.0221,0.0216,0.028,0.0279,0.0279,0.0211,0,0.0378,0.0433,0.0438,0.0488,0.0519,0.0508,0.0529,0.0533,0.0529,0.0536,0.0486,0.0486,0.0433,0.0428,0.0391,0.0329,0.0298,0.0324,0.022,0.0217,0.0206,0.0212,0.0232,0.0173,0.0207,0.0207,0.0206,0,0.042,0.0454,0.0512,0.0561,0.0573,0.0596,0.0635,0.0651,0.0649,0.0645,0.0624,0.0582,0.0543,0.0489,0.0388,0.0407,0.0331,0.0272,0.0268,0.0235,0.0195,0.0162,0.0165,0.02,0.02,0.0201,0.0201,0,0.0456,0.051,0.0563,0.0578,0.0622,0.0647,0.067,0.0687,0.0723,0.0717,0.0731,0.0666,0.0642,0.0535,0.041,0.0399,0.029,0.0258,0.017,0.0168,0.0157,0.0154,0.0185,0.0185,0.0185,0.0185,0.0185,0,0.0503,0.0545,0.0586,0.0617,0.0689,0.0696,0.0771,0.0784,0.0812,0.0863,0.0793,0.0809,0.0653,0.0568,0.0439,0.0299,0.0309,0.0182,0.0152,0.0175,0.0174,0.0176,0.0176,0.0182,0.0183,0.0184,0.0184,0,0.0539,0.0563,0.0631,0.0686,0.0712,0.0764,0.0848,0.0899,0.0914,0.0973,0.0972,0.0918,0.0812,0.0645,0.0477,0.0351,0.0209,0.0154,0.0192,0.0167,0.0097,0.01,0.005,0.0049,0.0048,0.0048,0.0047,0,0.0564,0.0602,0.0686,0.0734,0.0765,0.0844,0.0903,0.095,0.1014,0.1046,0.108,0.0997,0.0961,0.0707,0.0471,0.0242,0.0209,0.0103,0.0084,0.0109,0.0084,0.0089,0.0093,0.0084,0.0084,0.0084,0.0084,0,0.0613,0.064,0.0696,0.0796,0.0869,0.0963,0.1052,0.1119,0.1171,0.122,0.1262,0.1232,0.0995,0.0776,0.0459,0.0301,0.0139,0.0091,0.0107,0.012,0.0136,0.0114,0.0118,0.0082,0.0082,0.0082,0.0082,0.0082,0.0647,0.0696,0.0768,0.0864,0.0953,0.1067,0.1151,0.1244,0.1353,0.1418,0.1391,0.1344,0.1087,0.0691,0.0419,0.0127,0.0142,0.0031,0.0034,0.0036,0.0057,0.0071,0.0008,0.0008,0.0008,0.0008,0.0007,0,0.069,0.0745,0.0831,0.0946,0.1043,0.1089,0.1238,0.1321,0.1448,0.1493,0.1522,0.1273,0.103,0.0728,0.0303,0.0055,0.0035,-0.0033,-0.0,0.0004,0.0007,0.0028,-0.003,-0.0031,-0.0032,-0.0032,0,0,0.0713,0.0795,0.0838,0.0996,0.108,0.1217,0.1306,0.1427,0.1503,0.1552,0.1519,0.146,0.1111,0.0794,0.0456,0.0213,0.0164,0.0161,0.0219,0.0303,0.0309,0.0072,0.0112,0,0,0,0,0]}],[{"header":{"parameterUnit":"m.s-1","parameterCategory":2,"la1":30.2991,"la2":30.254,"lo1":-89.0895,"lo2":-89.0444,"dy":0.0017,"dx":0.0017,"nx":28,"ny":28,"refTime":"2024-02-06T03:00:00:Z","depth":"4","parameterNumber":2,"parameterNumberName":"U-component_of_CURRENTS"},"data":[0,0,0,0,0,0,0,0,0,0,0,0,0,0,0,0,0,0,0,0,0,0,0,0,0,0,0,0,0,0,0,0,0,0,0,0,0,0,0,0,0,0,0,0,0,0,0,0,0,0,0,0,0,0,0,0,0,0,0.1742,0.1743,0,0.1792,0.1793,0.1793,0.184,0.1841,0.1841,0.1842,0.1903,0.1904,0.1905,0,0,0,0,0,0,0,0,0,0,0,0,0,0.1686,0.1687,0.1742,0.1743,0.1744,0.1792,0.1793,0.1793,0.184,0.1841,0.1842,0.1842,0.1903,0.1904,0.1905,0,0,0,0,0,0,0,0,0,0,0,0,0,0.1719,0.1687,0.1742,0.1774,0.1778,0.1792,0.1793,0.1794,0.184,0.1841,0.1842,0.1843,0.1902,0.1904,0.1905,0.1892,0,0,0.191,0.191,0,0,0,0,0,0,0,0,0.1717,0.1721,0.1769,0.1772,0.1776,0.1813,0.1796,0.1828,0.1839,0.1814,0.1842,0.1843,0.1874,0.1878,0.1882,0.1895,0.1897,0.191,0.191,0.1911,0.1912,0,0,0,0,0,0,0,0.1715,0.1719,0.176,0.1769,0.1774,0.1786,0.1792,0.1802,0.1836,0.1816,0.182,0.1828,0.1876,0.1881,0.1884,0.1898,0.191,0.1911,0.1912,0.1912,0.2012,0.2014,0,0,0,0,0,0,0.1711,0.1717,0.1759,0.1762,0.1751,0.1786,0.1793,0.1798,0.1836,0.1843,0.1827,0.183,0.1878,0.1882,0.1886,0.1969,0.1911,0.1912,0.1913,0.201,0.2013,0.2015,0,0,0,0,0,0,0.171,0.1714,0.1757,0.1742,0.1749,0.1786,0.1792,0.1799,0.1842,0.1845,0.1852,0.1868,0.1879,0.1885,0.1932,0.1968,0.1913,0.1914,0.2008,0.2011,0.2014,0.2071,0,0,0,0,0,0,0.1708,0.1713,0.1735,0.1742,0.1749,0.1787,0.1791,0.1799,0.1843,0.1849,0.1881,0.1886,0.188,0.193,0.1933,0.1969,0.1915,0.2006,0.201,0.2013,0.2067,0.2076,0.2083,0,0,0,0,0,0.1705,0.1722,0.1736,0.1742,0.1772,0.1788,0.1794,0.1822,0.1845,0.1866,0.1895,0.1887,0.1954,0.1932,0.1936,0.1973,0.2004,0.2009,0.2012,0.2064,0.2074,0.2083,0,0,0,0,0,0,0.1711,0.1729,0.1744,0.1767,0.1789,0.1798,0.1827,0.1844,0.1883,0.1903,0.1906,0.1913,0.1969,0.1964,0.194,0.2013,0.1979,0.1984,0.2017,0.2027,0.2035,0.2045,0.1917,0,0,0,0,0,0.1721,0.1742,0.1757,0.1782,0.1796,0.182,0.184,0.1858,0.1884,0.1904,0.1926,0.1955,0.1981,0.2,0.2018,0.2055,0.2053,0.2083,0.2091,0.2098,0.211,0.2141,0.2153,0.2028,0.2028,0.2028,0,0,0.173,0.1745,0.1759,0.1786,0.1809,0.1832,0.1835,0.1874,0.1907,0.1903,0.1967,0.1986,0.1998,0.2042,0.2067,0.2048,0.2132,0.2103,0.2108,0.2117,0.2147,0.2159,0.2169,0.2031,0.203,0.203,0,0,0.1746,0.1776,0.1795,0.1817,0.1856,0.1868,0.1888,0.1919,0.1952,0.2,0.2014,0.2059,0.2093,0.2112,0.2124,0.2188,0.2175,0.2198,0.2245,0.2276,0.2286,0.2295,0.2303,0.2312,0.22,0.22,0.22,0,0.1762,0.1783,0.1805,0.1829,0.1854,0.1889,0.1915,0.1949,0.1996,0.2027,0.2033,0.2112,0.2126,0.2181,0.2209,0.2206,0.2214,0.2204,0.2285,0.2294,0.2303,0.2308,0.2318,0.2203,0.2203,0.2203,0.2202,0,0.1776,0.1811,0.1828,0.1869,0.1899,0.1931,0.1971,0.2019,0.2062,0.2091,0.2169,0.2192,0.2239,0.2253,0.2252,0.2324,0.2307,0.2291,0.2258,0.2319,0.2321,0.233,0.2208,0.2207,0.2206,0.2205,0,0,0.1761,0.1825,0.1836,0.1862,0.1925,0.1943,0.2013,0.207,0.2122,0.218,0.2242,0.2301,0.2328,0.2344,0.2356,0.2387,0.2451,0.2373,0.2373,0.2375,0.2511,0.2346,0.2339,0.2452,0.2454,0.2456,0.2486,0,0.1769,0.1813,0.1849,0.1904,0.1927,0.1987,0.2042,0.2107,0.2169,0.2238,0.2291,0.2355,0.2359,0.2393,0.243,0.245,0.2479,0.2443,0.2457,0.2457,0.2299,0.2346,0.2463,0.2492,0.2494,0.2496,0.2497,0,0.1762,0.1795,0.1846,0.1916,0.1934,0.1983,0.2078,0.2133,0.2239,0.229,0.2372,0.2412,0.2492,0.2475,0.255,0.253,0.2535,0.2538,0.2539,0.2372,0.2309,0.2422,0.2512,0.2511,0.251,0.2509,0.2508,0,0.1714,0.1788,0.1831,0.1856,0.1943,0.1995,0.2054,0.2159,0.2221,0.2339,0.2395,0.2482,0.254,0.2572,0.26,0.2585,0.2657,0.2627,0.248,0.2468,0.2582,0.2572,0.2674,0.2674,0.2674,0.2674,0.2674,0,0.1683,0.1721,0.1821,0.1841,0.1908,0.198,0.2069,0.2143,0.2261,0.2324,0.2429,0.248,0.2573,0.2622,0.2626,0.2579,0.2681,0.2496,0.2469,0.2604,0.2596,0.2587,0.2577,0.2675,0.2674,0.2674,0.2674,0,0.1618,0.1683,0.1739,0.1846,0.1887,0.194,0.2079,0.2129,0.2258,0.2345,0.2389,0.2513,0.2562,0.2622,0.2669,0.2593,0.2572,0.253,0.2675,0.2655,0.2353,0.2346,0.2353,0.2348,0.2343,0.2339,0.2336,0,0.1581,0.1606,0.1733,0.1771,0.183,0.1925,0.1979,0.2118,0.217,0.2334,0.2353,0.2463,0.2519,0.2457,0.2531,0.2515,0.2488,0.2453,0.2398,0.2349,0.2323,0.2323,0.2322,0.2329,0.2327,0.2326,0.2325,0,0.1514,0.1581,0.1628,0.1711,0.1781,0.1843,0.1936,0.1964,0.2102,0.2238,0.2257,0.2275,0.2323,0.2345,0.2357,0.2343,0.2459,0.2404,0.2412,0.236,0.2319,0.2298,0.2303,0.2309,0.2311,0.2313,0.2314,0,0.1473,0.1492,0.1568,0.1624,0.1705,0.1726,0.1793,0.1838,0.1908,0.2077,0.2076,0.2183,0.2297,0.2256,0.2267,0.2241,0.2197,0.2109,0.2132,0.2151,0.207,0.1987,0.1856,0,0,0,0,0,0.1417,0.1421,0.1469,0.1514,0.1585,0.1632,0.1738,0.1804,0.1936,0.1893,0.198,0.2007,0.2014,0.2077,0.2008,0.2176,0.2211,0.2084,0.2124,0.2219,0.2238,0.216,0,0,0,0,0,0,0.1377,0.142,0.1428,0.1407,0.1414,0.1474,0.1535,0.1627,0.1615,0.1757,0.1776,0.1877,0.1924,0.203,0.1967,0.1983,0.1962,0.2157,0.2151,0.2209,0.2226,0.2241,0.2167,0,0,0,0,0]},{"header":{"parameterUnit":"m.s-1","parameterCategory":2,"la1":30.2991,"la2":30.254,"lo1":-89.0895,"lo2":-89.0444,"dy":0.0017,"dx":0.0017,"nx":28,"ny":28,"refTime":"2024-02-06T03:00:00:Z","depth":"4","parameterNumber":3,"parameterNumberName":"V-component_of_CURRENTS"},"data":[0,0,0,0,0,0,0,0,0,0,0,0,0,0,0,0,0,0,0,0,0,0,0,0,0,0,0,0,0,0,0,0,0,0,0,0,0,0,0,0,0,0,0,0,0,0,0,0,0,0,0,0,0,0,0,0,0,0,0.0221,0.0221,0,0.0206,0.0206,0.0205,0.0198,0.0198,0.0198,0.0198,0.0179,0.0178,0.0178,0,0,0,0,0,0,0,0,0,0,0,0,0,0.0208,0.0208,0.0221,0.0221,0.0221,0.0206,0.0206,0.0205,0.0198,0.0198,0.0198,0.0198,0.0179,0.0178,0.0177,0,0,0,0,0,0,0,0,0,0,0,0,0,0.0205,0.0209,0.0221,0.0216,0.0215,0.0206,0.0206,0.0205,0.0198,0.0198,0.0198,0.0198,0.0179,0.0178,0.0177,0.0172,0,0,0.0175,0.0175,0,0,0,0,0,0,0,0,0.0205,0.0206,0.0217,0.0216,0.0215,0.0204,0.0194,0.0194,0.0198,0.0204,0.0198,0.0198,0.0187,0.0185,0.0182,0.0171,0.017,0.0175,0.0174,0.0174,0.0174,0,0,0,0,0,0,0,0.0206,0.0206,0.0215,0.0216,0.0216,0.0201,0.0201,0.0194,0.0195,0.0204,0.0203,0.0202,0.0186,0.0183,0.0182,0.017,0.0175,0.0174,0.0174,0.0173,0.0161,0.0161,0,0,0,0,0,0,0.021,0.0206,0.0215,0.0215,0.0211,0.0202,0.0202,0.0207,0.0195,0.0194,0.0202,0.0201,0.0184,0.0183,0.0181,0.0192,0.0174,0.0173,0.0173,0.016,0.0161,0.0161,0,0,0,0,0,0,0.021,0.0211,0.0216,0.021,0.0209,0.0202,0.0209,0.0207,0.021,0.0194,0.0192,0.0206,0.0184,0.0182,0.0182,0.0191,0.0173,0.0172,0.016,0.0161,0.0161,0.0203,0,0,0,0,0,0,0.021,0.0211,0.0218,0.021,0.021,0.0219,0.0208,0.0207,0.0208,0.0208,0.0197,0.0195,0.0184,0.0183,0.0181,0.0189,0.0172,0.016,0.016,0.0161,0.0201,0.0204,0.0207,0,0,0,0,0,0.0209,0.022,0.0219,0.022,0.022,0.0219,0.0218,0.0212,0.0209,0.0214,0.0206,0.0196,0.0183,0.0183,0.018,0.0188,0.016,0.016,0.0161,0.02,0.0204,0.0207,0,0,0,0,0,0,0.0215,0.0219,0.0219,0.0229,0.0228,0.0218,0.0222,0.0217,0.0214,0.0215,0.02,0.0198,0.0199,0.0187,0.0187,0.0184,0.0169,0.0169,0.0199,0.0203,0.0206,0.022,0.0171,0,0,0,0,0,0.022,0.0232,0.0229,0.0238,0.0239,0.0232,0.0231,0.0227,0.0223,0.0222,0.0214,0.0204,0.0197,0.0196,0.0185,0.0187,0.0166,0.0189,0.0192,0.0195,0.0204,0.0175,0.0177,0.0162,0.0162,0.0162,0,0,0.0224,0.0228,0.0234,0.024,0.0239,0.0249,0.0232,0.0235,0.0244,0.022,0.023,0.0214,0.0198,0.02,0.0199,0.0193,0.0187,0.0195,0.0198,0.0205,0.0176,0.0177,0.0178,0.0162,0.0162,0.0162,0,0,0.0239,0.0243,0.0258,0.0262,0.0264,0.0261,0.0265,0.026,0.026,0.0264,0.0248,0.024,0.0231,0.0222,0.0216,0.0229,0.0201,0.0224,0.0254,0.0226,0.0228,0.0228,0.0199,0.0197,0.0228,0.0228,0.0228,0,0.0243,0.0265,0.0261,0.0277,0.0286,0.0272,0.0291,0.0287,0.0282,0.0287,0.0274,0.0258,0.0242,0.0245,0.025,0.0237,0.0215,0.0244,0.0231,0.0231,0.0231,0.0201,0.0198,0.023,0.023,0.0229,0.0229,0,0.027,0.0289,0.0298,0.0318,0.0325,0.0338,0.0336,0.0339,0.0335,0.0331,0.033,0.0303,0.0296,0.0285,0.0274,0.027,0.0252,0.0236,0.0224,0.0235,0.0203,0.0199,0.0233,0.0232,0.0231,0.0231,0,0,0.0281,0.0313,0.0318,0.034,0.0351,0.0363,0.0376,0.039,0.0408,0.0386,0.0401,0.0377,0.036,0.0352,0.0327,0.0303,0.028,0.0276,0.0274,0.0252,0.0217,0.0199,0.0192,0.0261,0.0261,0.0261,0.0193,0,0.0307,0.035,0.0357,0.0401,0.0425,0.0423,0.0442,0.0449,0.0449,0.0457,0.0421,0.0424,0.0386,0.0385,0.0353,0.0302,0.0273,0.03,0.0206,0.0203,0.0189,0.0188,0.026,0.019,0.0189,0.0188,0.0188,0,0.0335,0.0364,0.0412,0.0457,0.0468,0.0491,0.0526,0.0542,0.0542,0.0542,0.0528,0.0498,0.0466,0.0427,0.034,0.0359,0.0296,0.0247,0.0243,0.0211,0.0178,0.0176,0.0181,0.0181,0.0182,0.0182,0.0183,0,0.0356,0.0404,0.0449,0.0464,0.0505,0.0531,0.0555,0.0572,0.0601,0.06,0.0612,0.056,0.0541,0.0453,0.0349,0.0346,0.0243,0.0223,0.0144,0.0141,0.016,0.016,0.0158,0.0158,0.0158,0.0158,0.0159,0,0.0385,0.0422,0.0467,0.0493,0.0556,0.0569,0.0634,0.0647,0.0673,0.071,0.0662,0.0666,0.0547,0.0471,0.0367,0.0245,0.0253,0.0151,0.0124,0.0178,0.0181,0.0157,0.0158,0.0156,0.0156,0.0157,0.0157,0,0.0403,0.0429,0.0488,0.0544,0.0571,0.0617,0.0695,0.0735,0.0754,0.0796,0.0797,0.0747,0.065,0.0518,0.0374,0.0277,0.0156,0.0109,0.0179,0.0156,0.0067,0.0071,0.0016,0.0015,0.0014,0.0013,0.0013,0,0.0415,0.0446,0.0529,0.0572,0.0605,0.0678,0.0729,0.0775,0.0821,0.0844,0.0861,0.0788,0.0731,0.0516,0.0374,0.0168,0.0135,0.0065,0.0063,0.0074,0.0053,0.0059,0.0064,0.0011,0.0011,0.0011,0.001,0,0.0438,0.0469,0.0518,0.0607,0.0674,0.0755,0.0832,0.087,0.0914,0.093,0.091,0.0801,0.0689,0.0519,0.0358,0.021,0.0106,0.0054,0.0055,0.0052,0.0067,0.0048,0.0054,0.0007,0.0007,0.0008,0.0008,0,0.0456,0.0493,0.0557,0.0638,0.0724,0.0805,0.0848,0.0896,0.094,0.0955,0.0946,0.0825,0.0759,0.0541,0.0395,0.0245,0.0203,0.0142,0.0137,0.0139,0.019,0.0227,0.0197,0,0,0,0,0,0.0469,0.0512,0.0583,0.0671,0.0756,0.081,0.0903,0.0936,0.0976,0.0964,0.0958,0.0851,0.0638,0.0556,0.0403,0.0367,0.0172,0.018,0.0098,-0.0012,-0.0008,0.0028,0,0,0,0,0,0,0.0478,0.0542,0.0579,0.0683,0.0745,0.0843,0.0904,0.0933,0.0933,0.0944,0.0841,0.0793,0.0595,0.072,0.0392,0.035,0.0271,0.0089,0.0085,-0.0015,-0.0011,-0.0008,0.0031,0,0,0,0,0]}]]